Accueil
METAR-TAF:

METAR-TAF

Aéroports :

Waterville Robert LaFleur Airport

Waterville, Maine, États-Unis

latitude: 44-32N, longitude: 069-41W, altitude: 101 m

Observation

Le bulletin a été fait il y a 33 minutes, à 15:56 UTC
Vent 4 kt de direction variable
Température 18°C
Humidité 64%
Pression 1009 hPa
Visibilité: 16.1 km
Nuages fragmentés à une hauteur de 8000 ft

METAR: KWVL 011556Z AUTO VRB04KT 10SM BKN080 18/11 A2980 RMK AO2 SLP118 T01780111

Heure: 12:29 (16:29 UTC)


TAF: absent

Observations et prévisions météorologiques de plus de 4000 aéroports (messages METAR et TAF).

Les stations disponibles sont représentées par des disques jaunes et rouges sur la carte.

Passer la souris dessus pour voir le nom de la station.

Cliquer dessus pour voir les observations et prévisions météorologiques.

Pour changer de carte: cliquez sur les boutons verts avec une croix noire pour zoomer, sur le bouton vert avec un tiret pour effectuer un zoom arrière, ou sur les flèches vertes pour les cartes adjacentes.


METAR-TAF: